Regional Weather Roundup
Issued by NWS Cleveland, OH

Home | Current Version | Previous Version | Text Only | Print | Product List | Glossary Off
Versions: 1 2 3 4 5 6 7 8 9 10 11 12 13 14 15 16 17 18 19 20 21 22 23 24 25 26 27 28 29 30 31 32 33 34 35 36 37 38 39 40 41 42 43 44 45 46 47 48 49 50

000
ASUS41 KCLE 170410
RWRCLE
OHIO REGIONAL WEATHER ROUNDUP
NATIONAL WEATHER SERVICE WILMINGTON, OH
1200 AM EDT THU AUG 17 2017

NOTE: "FAIR" INDICATES FEW OR NO CLOUDS BELOW 12,000 FEET WITH NO
SIGNIFICANT WEATHER AND/OR OBSTRUCTIONS TO VISIBILITY.

OHZ001>008-015>018-024>027-034-035-043-044-170500-
   NORTHWEST OHIO

CITY           SKY/WX    TMP DP  RH WIND       PRES   REMARKS
DEFIANCE       FAIR      72  63  73 E8        29.96F
FINDLAY        FAIR      74  65  73 E8        29.98S
TOLEDO EXPRESS FAIR      71  61  70 E5        29.97F
TOLEDO EXEC    FAIR      70  63  78 E6        29.99F
LIMA           FAIR      72  70  93 SE6       29.98S
$$

OHZ009>014-019>023-028>033-038-089-170500-
   NORTHEAST OHIO

CITY           SKY/WX    TMP DP  RH WIND       PRES   REMARKS
CLE-HOPKINS    FAIR      74  57  55 SE5       30.04S
CLE-LAKEFRONT  FAIR      75  57  53 E3        30.01F
CUY CO. ARPT   NOT AVBL
LORAIN-ELYRIA  FAIR      68  55  63 SE6       30.02F
ASHTABULA      MOCLDY    60  59  96 CALM      30.07S
AKRON-CANTON   FAIR      72  60  66 E6        30.05S
WOOSTER        FAIR      65  63  93 E3        30.04F
MANSFIELD      FAIR      73  67  81 SE7       30.03F
YOUNGSTOWN     MOCLDY    65  58  78 E6        30.06F
$$

OHZ042-051>053-060>062-070>072-077>081-170500-
  SOUTHWEST OHIO

CITY           SKY/WX    TMP DP  RH WIND       PRES   REMARKS
CINC-COVINGTON MOCLDY    77  73  87 S7        29.99S
CINC-LUNKEN    FAIR      77  73  87 S7        29.98F
HAMILTON       FAIR      76  74  93 E3        29.98F
DAYTON         MOCLDY    75  69  81 SE7       29.99F
WRIGHT-PAT AFB MOCLDY    75  73  92 CALM      29.98F
DAYTON GENERAL FAIR      77  70  79 S7        29.99S
WILMINGTON     FAIR      74  72  93 SE3       30.00F
$$

OHZ036-037-039>041-045>050-054>059-063>069-073>076-082>088-170500-
  CENTRAL AND SOUTHEAST OHIO

CITY           SKY/WX    TMP DP  RH WIND       PRES   REMARKS
COLUMBUS       CLOUDY    77  70  79 SE6       30.00S
OSU AIRPORT    FAIR      76  72  87 E6        30.00F
BOLTON FIELD   FAIR      73  70  89 SE3       30.01S
RICKENBACK AFB FAIR      73  70  90 CALM      30.00S
NEWARK         FAIR      72  69  90 CALM      30.01F
MARION         FAIR      73  67  81 S7        30.01S
LANCASTER      FAIR      70  69  97 CALM      30.02S FOG
ZANESVILLE     FAIR      71  67  87 CALM      30.02F
NEW PHILLY     FAIR      67  66  97 CALM      30.04F
$$



USA.gov is the U.S. government's official web portal to all federal, state and local government web resources and services.